Time,TemperatureF,DewpointF,PressureIn,WindDirection,WindDirectionDegrees,WindSpeedMPH,WindSpeedGustMPH,Humidity,HourlyPrecipIn,Conditions,Clouds,dailyrainin,SoftwareType,DateUTC
2013-07-11 00:03:00,54.2,47.5,29.92,SW,222,0.0,0.0,78,0.00,,FEW,0.00,VWS V14.01,2013-07-11 07:03:00,
2013-07-11 00:08:00,53.9,47.2,29.92,SW,222,0.0,0.0,78,0.00,,FEW,0.00,VWS V14.01,2013-07-11 07:08:00,
2013-07-11 00:13:00,53.8,47.5,29.92,SW,222,0.0,0.0,79,0.00,,FEW,0.00,VWS V14.01,2013-07-11 07:13:00,
2013-07-11 00:19:00,53.5,47.5,29.92,SW,222,0.0,1.0,80,0.00,,FEW,0.00,VWS V14.01,2013-07-11 07:19:00,
2013-07-11 00:24:00,53.3,47.3,29.92,SW,222,0.0,1.0,80,0.00,,FEW,0.00,VWS V14.01,2013-07-11 07:24:00,
2013-07-11 00:29:00,53.2,47.5,29.92,SW,222,0.0,1.0,81,0.00,,FEW,0.00,VWS V14.01,2013-07-11 07:29:00,
2013-07-11 00:34:00,52.9,47.2,29.92,SW,222,0.0,0.0,81,0.00,,FEW,0.00,VWS V14.01,2013-07-11 07:34:00,
2013-07-11 00:39:00,52.8,47.1,29.92,SW,222,0.0,0.0,81,0.00,,FEW,0.00,VWS V14.01,2013-07-11 07:39:00,
2013-07-11 00:44:00,52.6,46.9,29.92,SW,222,0.0,0.0,81,0.00,,FEW,0.00,VWS V14.01,2013-07-11 07:44:00,
2013-07-11 00:49:00,52.5,46.8,29.93,SW,222,0.0,0.0,81,0.00,,FEW,0.00,VWS V14.01,2013-07-11 07:49:00,
2013-07-11 00:54:00,52.3,46.7,29.93,SW,222,0.0,0.0,81,0.00,,FEW,0.00,VWS V14.01,2013-07-11 07:54:00,
2013-07-11 00:59:00,52.2,46.9,29.92,SW,222,0.0,0.0,82,0.00,,FEW,0.00,VWS V14.01,2013-07-11 07:59:00,
2013-07-11 01:04:00,52.0,46.7,29.92,SW,222,0.0,0.0,82,0.00,,FEW,0.00,VWS V14.01,2013-07-11 08:04:00,
2013-07-11 01:09:00,52.0,46.7,29.92,SW,222,0.0,0.0,82,0.00,,FEW,0.00,VWS V14.01,2013-07-11 08:09:00,
2013-07-11 01:14:00,51.9,46.6,29.92,SW,222,0.0,0.0,82,0.00,,FEW,0.00,VWS V14.01,2013-07-11 08:14:00,
2013-07-11 01:19:00,51.7,46.4,29.92,SW,222,0.0,0.0,82,0.00,,FEW,0.00,VWS V14.01,2013-07-11 08:19:00,
2013-07-11 01:24:00,51.6,46.6,29.92,SW,222,0.0,0.0,83,0.00,,FEW,0.00,VWS V14.01,2013-07-11 08:24:00,
2013-07-11 01:29:00,51.4,46.4,29.92,SW,222,0.0,0.0,83,0.00,,FEW,0.00,VWS V14.01,2013-07-11 08:29:00,
2013-07-11 01:34:00,51.3,46.3,29.92,SW,222,0.0,0.0,83,0.00,,FEW,0.00,VWS V14.01,2013-07-11 08:34:00,
2013-07-11 01:39:00,51.1,46.1,29.92,SW,222,0.0,0.0,83,0.00,,FEW,0.00,VWS V14.01,2013-07-11 08:39:00,
2013-07-11 01:44:00,50.8,46.2,29.92,SW,222,0.0,0.0,84,0.00,,FEW,0.00,VWS V14.01,2013-07-11 08:44:00,
2013-07-11 01:49:00,50.7,46.0,29.92,SW,222,0.0,0.0,84,0.00,,FEW,0.00,VWS V14.01,2013-07-11 08:49:00,
2013-07-11 01:54:00,50.5,45.8,29.92,SW,223,0.0,0.0,84,0.00,,FEW,0.00,VWS V14.01,2013-07-11 08:54:00,
2013-07-11 01:59:00,50.5,45.8,29.92,SW,222,0.0,0.0,84,0.00,,FEW,0.00,VWS V14.01,2013-07-11 08:59:00,
2013-07-11 02:04:00,50.4,46.1,29.92,SW,222,0.0,0.0,85,0.00,,FEW,0.00,VWS V14.01,2013-07-11 09:04:00,
2013-07-11 02:09:00,50.2,45.9,29.92,SW,222,0.0,0.0,85,0.00,,FEW,0.00,VWS V14.01,2013-07-11 09:09:00,
2013-07-11 02:14:00,50.1,45.8,29.93,SW,222,0.0,0.0,85,0.00,,FEW,0.00,VWS V14.01,2013-07-11 09:14:00,
2013-07-11 02:19:00,49.9,45.6,29.93,SW,222,0.0,0.0,85,0.00,,FEW,0.00,VWS V14.01,2013-07-11 09:19:00,
2013-07-11 02:24:00,49.8,45.8,29.93,SW,222,0.0,0.0,86,0.00,,FEW,0.00,VWS V14.01,2013-07-11 09:24:00,
2013-07-11 02:29:00,49.6,45.6,29.93,SW,223,0.0,0.0,86,0.00,,FEW,0.00,VWS V14.01,2013-07-11 09:29:00,
2013-07-11 02:34:00,49.5,45.5,29.93,SW,222,0.0,0.0,86,0.00,,FEW,0.00,VWS V14.01,2013-07-11 09:34:00,
2013-07-11 02:39:00,49.4,45.4,29.93,SW,222,0.0,0.0,86,0.00,,FEW,0.00,VWS V14.01,2013-07-11 09:39:00,
2013-07-11 02:44:00,49.4,45.7,29.93,SW,222,0.0,0.0,87,0.00,,FEW,0.00,VWS V14.01,2013-07-11 09:44:00,
2013-07-11 02:49:00,49.2,45.5,29.93,SW,222,0.0,0.0,87,0.00,,FEW,0.00,VWS V14.01,2013-07-11 09:49:00,
2013-07-11 02:54:00,49.1,45.4,29.93,SW,222,0.0,0.0,87,0.00,,FEW,0.00,VWS V14.01,2013-07-11 09:54:00,
2013-07-11 02:59:00,49.1,45.4,29.93,SW,222,0.0,0.0,87,0.00,,FEW,0.00,VWS V14.01,2013-07-11 09:59:00,
2013-07-11 03:04:00,48.9,45.5,29.93,SW,222,0.0,0.0,88,0.00,,FEW,0.00,VWS V14.01,2013-07-11 10:04:00,
2013-07-11 03:09:00,48.8,45.4,29.93,SW,222,0.0,0.0,88,0.00,,FEW,0.00,VWS V14.01,2013-07-11 10:09:00,
2013-07-11 03:14:00,48.8,45.4,29.93,WNW,290,0.0,0.0,88,0.00,,FEW,0.00,VWS V14.01,2013-07-11 10:14:00,
2013-07-11 03:19:00,48.8,45.4,29.93,WNW,290,0.0,0.0,88,0.00,,FEW,0.00,VWS V14.01,2013-07-11 10:19:00,
2013-07-11 03:24:00,48.6,45.2,29.93,WNW,290,0.0,0.0,88,0.00,,FEW,0.00,VWS V14.01,2013-07-11 10:24:00,
2013-07-11 03:30:00,48.6,45.2,29.94,WNW,290,0.0,0.0,88,0.00,,FEW,0.00,VWS V14.01,2013-07-11 10:30:00,
2013-07-11 03:35:00,48.5,45.1,29.94,WNW,290,0.0,0.0,88,0.00,,FEW,0.00,VWS V14.01,2013-07-11 10:35:00,
2013-07-11 03:40:00,48.3,45.2,29.94,WNW,290,0.0,0.0,89,0.00,,FEW,0.00,VWS V14.01,2013-07-11 10:40:00,
2013-07-11 03:45:00,48.2,45.1,29.94,WNW,290,0.0,0.0,89,0.00,,FEW,0.00,VWS V14.01,2013-07-11 10:45:00,
2013-07-11 03:50:00,48.0,44.9,29.94,WNW,290,0.0,0.0,89,0.00,,FEW,0.00,VWS V14.01,2013-07-11 10:50:00,
2013-07-11 03:55:00,48.0,44.9,29.94,WNW,290,0.0,0.0,89,0.00,,FEW,0.00,VWS V14.01,2013-07-11 10:55:00,
2013-07-11 04:00:00,47.9,44.8,29.94,WNW,290,0.0,0.0,89,0.00,,FEW,0.00,VWS V14.01,2013-07-11 11:00:00,
2013-07-11 04:05:00,47.9,44.8,29.94,WNW,290,0.0,0.0,89,0.00,,FEW,0.00,VWS V14.01,2013-07-11 11:05:00,
2013-07-11 04:10:00,47.7,44.6,29.94,WNW,290,0.0,0.0,89,0.00,,FEW,0.00,VWS V14.01,2013-07-11 11:10:00,
2013-07-11 04:15:00,47.6,44.5,29.94,WNW,290,0.0,0.0,89,0.00,,FEW,0.00,VWS V14.01,2013-07-11 11:15:00,
2013-07-11 04:20:00,47.4,44.3,29.94,WNW,290,0.0,0.0,89,0.00,,FEW,0.00,VWS V14.01,2013-07-11 11:20:00,
2013-07-11 04:25:00,47.3,44.2,29.94,WNW,290,0.0,0.0,89,0.00,,FEW,0.00,VWS V14.01,2013-07-11 11:25:00,
2013-07-11 04:30:00,47.1,44.0,29.95,WNW,290,0.0,0.0,89,0.00,,FEW,0.00,VWS V14.01,2013-07-11 11:30:00,
2013-07-11 04:35:00,47.1,44.0,29.95,WNW,290,0.0,0.0,89,0.00,,FEW,0.00,VWS V14.01,2013-07-11 11:35:00,
2013-07-11 04:40:00,47.0,43.9,29.95,WNW,290,0.0,0.0,89,0.00,,FEW,0.00,VWS V14.01,2013-07-11 11:40:00,
2013-07-11 04:45:00,47.0,44.2,29.96,WNW,290,0.0,0.0,90,0.00,,FEW,0.00,VWS V14.01,2013-07-11 11:45:00,
2013-07-11 04:50:00,46.8,44.0,29.96,WNW,290,0.0,0.0,90,0.00,,FEW,0.00,VWS V14.01,2013-07-11 11:50:00,
2013-07-11 04:55:00,46.7,43.9,29.96,WNW,290,0.0,0.0,90,0.00,,FEW,0.00,VWS V14.01,2013-07-11 11:55:00,
2013-07-11 05:00:00,46.7,43.9,29.96,WNW,290,0.0,0.0,90,0.00,,FEW,0.00,VWS V14.01,2013-07-11 12:00:00,
2013-07-11 05:05:00,46.5,43.7,29.96,WNW,290,0.0,0.0,90,0.00,,FEW,0.00,VWS V14.01,2013-07-11 12:05:00,
2013-07-11 05:10:00,46.5,43.7,29.96,WNW,290,0.0,0.0,90,0.00,,FEW,0.00,VWS V14.01,2013-07-11 12:10:00,
2013-07-11 05:15:00,46.4,43.6,29.97,WNW,290,0.0,0.0,90,0.00,,FEW,0.00,VWS V14.01,2013-07-11 12:15:00,
2013-07-11 05:20:00,46.4,43.6,29.97,WNW,290,0.0,0.0,90,0.00,,FEW,0.00,VWS V14.01,2013-07-11 12:20:00,
2013-07-11 05:25:00,46.4,43.9,29.97,WNW,290,0.0,0.0,91,0.00,,FEW,0.00,VWS V14.01,2013-07-11 12:25:00,
2013-07-11 05:30:00,46.2,43.4,29.97,WNW,290,0.0,0.0,90,0.00,,FEW,0.00,VWS V14.01,2013-07-11 12:30:00,
2013-07-11 05:35:00,46.1,43.6,29.97,WNW,290,0.0,0.0,91,0.00,,FEW,0.00,VWS V14.01,2013-07-11 12:35:00,
2013-07-11 05:40:00,46.1,43.6,29.97,WNW,290,0.0,0.0,91,0.00,,FEW,0.00,VWS V14.01,2013-07-11 12:40:00,
2013-07-11 05:45:00,46.1,43.6,29.97,WNW,290,0.0,0.0,91,0.00,,FEW,0.00,VWS V14.01,2013-07-11 12:45:00,
2013-07-11 05:50:00,46.0,43.5,29.97,WNW,290,0.0,0.0,91,0.00,,FEW,0.00,VWS V14.01,2013-07-11 12:50:00,
2013-07-11 05:55:00,46.0,43.5,29.97,WNW,290,0.0,0.0,91,0.00,,FEW,0.00,VWS V14.01,2013-07-11 12:55:00,
2013-07-11 06:00:00,46.0,43.5,29.97,WNW,290,0.0,0.0,91,0.00,,FEW,0.00,VWS V14.01,2013-07-11 13:00:00,
2013-07-11 06:05:00,46.0,43.5,29.97,WNW,290,0.0,0.0,91,0.00,,FEW,0.00,VWS V14.01,2013-07-11 13:05:00,
2013-07-11 06:11:00,46.0,43.5,29.97,WNW,290,0.0,0.0,91,0.00,,FEW,0.00,VWS V14.01,2013-07-11 13:11:00,
2013-07-11 06:16:00,46.0,43.5,29.97,WNW,290,0.0,0.0,91,0.00,,FEW,0.00,VWS V14.01,2013-07-11 13:16:00,
2013-07-11 06:21:00,46.0,43.5,29.97,WNW,290,0.0,0.0,91,0.00,,FEW,0.00,VWS V14.01,2013-07-11 13:21:00,
2013-07-11 06:26:00,46.1,43.9,29.97,WNW,290,0.0,0.0,92,0.00,,FEW,0.00,VWS V14.01,2013-07-11 13:26:00,
2013-07-11 06:32:00,46.2,44.0,29.97,WNW,290,0.0,0.0,92,0.00,,FEW,0.00,VWS V14.01,2013-07-11 13:32:00,
2013-07-11 06:37:00,46.5,44.3,29.97,WNW,290,0.0,0.0,92,0.00,,FEW,0.00,VWS V14.01,2013-07-11 13:37:00,
2013-07-11 06:42:00,46.7,44.5,29.97,WNW,290,0.0,0.0,92,0.00,,FEW,0.00,VWS V14.01,2013-07-11 13:42:00,
2013-07-11 06:48:00,46.8,44.6,29.97,WNW,290,0.0,0.0,92,0.00,,FEW,0.00,VWS V14.01,2013-07-11 13:48:00,
2013-07-11 06:53:00,47.0,44.8,29.97,WNW,290,0.0,0.0,92,0.00,,FEW,0.00,VWS V14.01,2013-07-11 13:53:00,
2013-07-11 06:58:00,47.3,45.4,29.97,WNW,290,0.0,0.0,93,0.00,,FEW,0.00,VWS V14.01,2013-07-11 13:58:00,
2013-07-11 07:03:00,47.6,45.7,29.97,WNW,290,0.0,0.0,93,0.00,,FEW,0.00,VWS V14.01,2013-07-11 14:03:00,
2013-07-11 07:08:00,48.0,46.1,29.97,WNW,290,0.0,0.0,93,0.00,,FEW,0.00,VWS V14.01,2013-07-11 14:08:00,
2013-07-11 07:13:00,48.3,46.4,29.97,NNW,341,0.0,0.0,93,0.00,,FEW,0.00,VWS V14.01,2013-07-11 14:13:00,
2013-07-11 07:19:00,48.8,46.6,29.97,WNW,284,0.0,1.0,92,0.00,,FEW,0.00,VWS V14.01,2013-07-11 14:19:00,
2013-07-11 07:24:00,49.2,47.0,29.97,WNW,284,0.0,1.0,92,0.00,,FEW,0.00,VWS V14.01,2013-07-11 14:24:00,
2013-07-11 07:29:00,49.5,46.7,29.98,WNW,284,0.0,1.0,90,0.00,,FEW,0.00,VWS V14.01,2013-07-11 14:29:00,
2013-07-11 07:35:00,49.8,46.7,29.98,SSE,164,0.0,2.0,89,0.00,,FEW,0.00,VWS V14.01,2013-07-11 14:35:00,
2013-07-11 07:40:00,50.1,46.4,29.98,SSE,164,0.0,2.0,87,0.00,,FEW,0.00,VWS V14.01,2013-07-11 14:40:00,
2013-07-11 07:45:00,50.5,46.5,29.98,SSE,164,0.0,2.0,86,0.00,,FEW,0.00,VWS V14.01,2013-07-11 14:45:00,
2013-07-11 07:50:00,51.0,46.7,29.98,SSE,164,0.0,2.0,85,0.00,,FEW,0.00,VWS V14.01,2013-07-11 14:50:00,
2013-07-11 07:55:00,51.6,46.6,29.98,SSW,197,2.0,2.0,83,0.00,,FEW,0.00,VWS V14.01,2013-07-11 14:55:00,
2013-07-11 08:00:00,52.5,46.2,29.98,SW,216,2.0,2.0,79,0.00,,FEW,0.00,VWS V14.01,2013-07-11 15:00:00,
2013-07-11 08:05:00,53.6,45.9,29.98,South,176,1.0,6.0,75,0.00,,FEW,0.00,VWS V14.01,2013-07-11 15:05:00,
2013-07-11 08:10:00,54.1,45.7,29.98,SSW,194,2.0,6.0,73,0.00,,FEW,0.00,VWS V14.01,2013-07-11 15:10:00,
2013-07-11 08:15:00,54.5,45.7,29.98,ESE,120,5.0,6.0,72,0.00,,FEW,0.00,VWS V14.01,2013-07-11 15:15:00,
2013-07-11 08:20:00,55.0,46.2,29.98,SE,127,3.0,6.0,72,0.00,,FEW,0.00,VWS V14.01,2013-07-11 15:20:00,
2013-07-11 08:25:00,55.3,45.3,29.98,South,190,2.0,7.0,69,0.00,,FEW,0.00,VWS V14.01,2013-07-11 15:25:00,
2013-07-11 08:30:00,55.6,45.2,29.97,South,177,4.0,4.0,68,0.00,,FEW,0.00,VWS V14.01,2013-07-11 15:30:00,
2013-07-11 08:35:00,55.9,45.5,29.97,South,190,2.0,6.0,68,0.00,,FEW,0.00,VWS V14.01,2013-07-11 15:35:00,
2013-07-11 08:40:00,56.3,45.1,29.97,SSW,193,4.0,6.0,66,0.00,,FEW,0.00,VWS V14.01,2013-07-11 15:40:00,
2013-07-11 08:45:00,56.6,45.8,29.97,South,180,2.0,6.0,67,0.00,,FEW,0.00,VWS V14.01,2013-07-11 15:45:00,
2013-07-11 08:50:00,56.9,45.3,29.97,South,173,2.0,6.0,65,0.00,,FEW,0.00,VWS V14.01,2013-07-11 15:50:00,
2013-07-11 08:55:00,56.6,45.8,29.97,South,191,1.0,9.0,67,0.00,,FEW,0.00,VWS V14.01,2013-07-11 15:55:00,
2013-07-11 09:00:00,56.7,45.9,29.97,ESE,122,0.0,1.0,67,0.00,,FEW,0.00,VWS V14.01,2013-07-11 16:00:00,
2013-07-11 09:05:00,56.9,46.5,29.97,SE,126,0.0,6.0,68,0.00,,FEW,0.00,VWS V14.01,2013-07-11 16:05:00,
2013-07-11 09:10:00,56.9,46.5,29.97,South,187,1.0,6.0,68,0.00,,FEW,0.00,VWS V14.01,2013-07-11 16:10:00,
2013-07-11 09:15:00,56.9,46.8,29.97,South,188,0.0,6.0,69,0.00,,FEW,0.00,VWS V14.01,2013-07-11 16:15:00,
2013-07-11 09:21:00,57.0,47.3,29.97,ESE,112,0.0,6.0,70,0.00,,FEW,0.00,VWS V14.01,2013-07-11 16:21:00,
2013-07-11 09:26:00,57.5,47.8,29.97,ESE,120,1.0,6.0,70,0.00,,FEW,0.00,VWS V14.01,2013-07-11 16:26:00,
2013-07-11 09:31:00,57.6,48.3,29.97,SSE,167,0.0,0.0,71,0.00,,FEW,0.00,VWS V14.01,2013-07-11 16:31:00,
2013-07-11 09:36:00,57.8,48.1,29.97,South,180,0.0,1.0,70,0.00,,FEW,0.00,VWS V14.01,2013-07-11 16:36:00,
2013-07-11 09:41:00,57.6,47.9,29.97,NNE,27,2.0,4.0,70,0.00,,FEW,0.00,VWS V14.01,2013-07-11 16:41:00,
2013-07-11 09:46:00,57.5,47.4,29.97,NNE,33,0.0,4.0,69,0.00,,FEW,0.00,VWS V14.01,2013-07-11 16:46:00,
2013-07-11 09:51:00,57.8,48.5,29.97,East,92,0.0,4.0,71,0.00,,FEW,0.00,VWS V14.01,2013-07-11 16:51:00,
2013-07-11 09:56:00,58.0,47.9,29.97,SE,126,0.0,4.0,69,0.00,,FEW,0.00,VWS V14.01,2013-07-11 16:56:00,
2013-07-11 10:02:00,57.8,48.1,29.98,SSE,158,0.0,1.0,70,0.00,,FEW,0.00,VWS V14.01,2013-07-11 17:02:00,
2013-07-11 10:07:00,57.8,48.5,29.98,South,176,2.0,2.0,71,0.00,,FEW,0.00,VWS V14.01,2013-07-11 17:07:00,
2013-07-11 10:12:00,57.6,47.9,29.98,ESE,111,0.0,4.0,70,0.00,,FEW,0.00,VWS V14.01,2013-07-11 17:12:00,
2013-07-11 10:18:00,57.8,48.8,29.98,SSE,163,0.0,4.0,72,0.00,,FEW,0.00,VWS V14.01,2013-07-11 17:18:00,
2013-07-11 10:23:00,57.8,48.1,29.98,NNE,25,0.0,4.0,70,0.00,,FEW,0.00,VWS V14.01,2013-07-11 17:23:00,
2013-07-11 10:28:00,58.1,48.8,29.98,East,87,0.0,4.0,71,0.00,,FEW,0.00,VWS V14.01,2013-07-11 17:28:00,
2013-07-11 10:33:00,58.3,48.6,29.99,SW,224,0.0,3.0,70,0.00,,FEW,0.00,VWS V14.01,2013-07-11 17:33:00,
2013-07-11 10:38:00,58.6,49.2,29.99,South,188,0.0,3.0,71,0.00,,FEW,0.00,VWS V14.01,2013-07-11 17:38:00,
2013-07-11 10:43:00,58.9,49.2,29.99,NE,45,1.0,3.0,70,0.00,,FEW,0.00,VWS V14.01,2013-07-11 17:43:00,
2013-07-11 10:48:00,59.3,48.4,29.98,NE,37,0.0,5.0,67,0.00,,FEW,0.00,VWS V14.01,2013-07-11 17:48:00,
2013-07-11 10:53:00,59.3,49.5,29.98,South,188,2.0,6.0,70,0.00,,FEW,0.00,VWS V14.01,2013-07-11 17:53:00,
2013-07-11 10:59:00,59.3,49.1,29.98,SSE,168,0.0,6.0,69,0.00,,FEW,0.00,VWS V14.01,2013-07-11 17:59:00,
2013-07-11 11:04:00,59.5,48.9,29.98,ESE,108,1.0,2.0,68,0.00,,FEW,0.00,VWS V14.01,2013-07-11 18:04:00,
2013-07-11 11:09:00,59.9,49.3,29.98,NNW,346,3.0,3.0,68,0.00,,FEW,0.00,VWS V14.01,2013-07-11 18:09:00,
2013-07-11 11:15:00,60.1,48.7,29.98,NE,35,0.0,4.0,66,0.00,,FEW,0.00,VWS V14.01,2013-07-11 18:15:00,
2013-07-11 11:20:00,59.6,48.6,29.98,South,180,4.0,11.0,67,0.00,,FEW,0.00,VWS V14.01,2013-07-11 18:20:00,
2013-07-11 11:25:00,59.3,48.8,29.98,SSE,150,1.0,11.0,68,0.00,,FEW,0.00,VWS V14.01,2013-07-11 18:25:00,
2013-07-11 11:30:00,59.5,49.3,29.99,SSW,211,0.0,1.0,69,0.00,,FEW,0.00,VWS V14.01,2013-07-11 18:30:00,
2013-07-11 11:35:00,59.6,49.4,29.99,South,183,0.0,2.0,69,0.00,,FEW,0.00,VWS V14.01,2013-07-11 18:35:00,
2013-07-11 11:40:00,59.5,49.3,29.99,NNW,347,0.0,4.0,69,0.00,,FEW,0.00,VWS V14.01,2013-07-11 18:40:00,
2013-07-11 11:45:00,60.2,49.2,29.99,South,189,4.0,4.0,67,0.00,,FEW,0.00,VWS V14.01,2013-07-11 18:45:00,
2013-07-11 11:50:00,60.4,49.4,29.99,NNE,16,2.0,5.0,67,0.00,,FEW,0.00,VWS V14.01,2013-07-11 18:50:00,
2013-07-11 11:55:00,60.9,49.9,29.99,ESE,123,1.0,5.0,67,0.00,,FEW,0.00,VWS V14.01,2013-07-11 18:55:00,
2013-07-11 12:00:00,61.2,50.6,29.99,NNE,29,1.0,5.0,68,0.00,,FEW,0.00,VWS V14.01,2013-07-11 19:00:00,
2013-07-11 12:05:00,61.3,49.9,29.99,NE,35,0.0,5.0,66,0.00,,FEW,0.00,VWS V14.01,2013-07-11 19:05:00,
2013-07-11 12:10:00,61.8,49.5,29.99,SSW,212,0.0,5.0,64,0.00,,FEW,0.00,VWS V14.01,2013-07-11 19:10:00,
2013-07-11 12:16:00,62.0,50.1,29.99,SSE,158,2.0,5.0,65,0.00,,FEW,0.00,VWS V14.01,2013-07-11 19:16:00,
2013-07-11 12:21:00,61.6,48.9,29.99,South,174,0.0,5.0,63,0.00,,FEW,0.00,VWS V14.01,2013-07-11 19:21:00,
2013-07-11 12:26:00,61.5,50.0,29.99,SSE,168,0.0,5.0,66,0.00,,FEW,0.00,VWS V14.01,2013-07-11 19:26:00,
2013-07-11 12:32:00,61.5,49.6,29.99,South,189,0.0,3.0,65,0.00,,FEW,0.00,VWS V14.01,2013-07-11 19:32:00,
2013-07-11 12:37:00,61.3,49.0,29.99,South,187,2.0,6.0,64,0.00,,FEW,0.00,VWS V14.01,2013-07-11 19:37:00,
2013-07-11 12:42:00,60.9,49.9,29.99,South,183,3.0,6.0,67,0.00,,FEW,0.00,VWS V14.01,2013-07-11 19:42:00,
2013-07-11 12:47:00,60.7,48.9,29.99,South,184,1.0,6.0,65,0.00,,FEW,0.00,VWS V14.01,2013-07-11 19:47:00,
2013-07-11 12:52:00,61.2,49.3,29.99,East,83,2.0,6.0,65,0.00,,FEW,0.00,VWS V14.01,2013-07-11 19:52:00,
2013-07-11 12:57:00,61.8,49.9,29.99,South,187,1.0,6.0,65,0.00,,FEW,0.00,VWS V14.01,2013-07-11 19:57:00,
2013-07-11 13:03:00,62.3,51.2,29.99,SE,135,4.0,4.0,67,0.00,,FEW,0.00,VWS V14.01,2013-07-11 20:03:00,
2013-07-11 13:08:00,62.7,50.8,29.99,East,95,2.0,5.0,65,0.00,,FEW,0.00,VWS V14.01,2013-07-11 20:08:00,
2013-07-11 13:13:00,64.0,51.2,29.99,SE,127,0.0,5.0,63,0.00,,FEW,0.00,VWS V14.01,2013-07-11 20:13:00,
2013-07-11 13:18:00,64.5,51.2,29.99,ENE,64,3.0,6.0,62,0.00,,FEW,0.00,VWS V14.01,2013-07-11 20:18:00,
2013-07-11 13:23:00,64.5,50.8,29.99,East,79,0.0,6.0,61,0.00,,FEW,0.00,VWS V14.01,2013-07-11 20:23:00,
2013-07-11 13:28:00,65.0,51.7,29.99,South,185,1.0,6.0,62,0.00,,FEW,0.00,VWS V14.01,2013-07-11 20:28:00,
2013-07-11 13:33:00,64.5,50.3,29.99,SSW,197,1.0,6.0,60,0.00,,FEW,0.00,VWS V14.01,2013-07-11 20:33:00,
2013-07-11 13:38:00,64.5,50.3,29.99,SE,124,2.0,6.0,60,0.00,,FEW,0.00,VWS V14.01,2013-07-11 20:38:00,
2013-07-11 13:43:00,65.2,50.5,29.99,SSE,151,0.0,6.0,59,0.00,,FEW,0.00,VWS V14.01,2013-07-11 20:43:00,
2013-07-11 13:49:00,65.8,50.6,29.98,ENE,58,1.0,6.0,58,0.00,,FEW,0.00,VWS V14.01,2013-07-11 20:49:00,
2013-07-11 13:54:00,66.1,49.5,29.98,ENE,69,0.0,6.0,55,0.00,,FEW,0.00,VWS V14.01,2013-07-11 20:54:00,
2013-07-11 13:59:00,66.8,49.6,29.98,NE,39,4.0,6.0,54,0.00,,FEW,0.00,VWS V14.01,2013-07-11 20:59:00,
2013-07-11 14:05:00,66.9,48.7,29.98,North,5,2.0,7.0,52,0.00,,FEW,0.00,VWS V14.01,2013-07-11 21:05:00,
2013-07-11 14:10:00,66.9,50.2,29.98,South,191,0.0,7.0,55,0.00,,FEW,0.00,VWS V14.01,2013-07-11 21:10:00,
2013-07-11 14:15:00,66.3,47.7,29.98,ESE,119,0.0,7.0,51,0.00,,FEW,0.00,VWS V14.01,2013-07-11 21:15:00,
2013-07-11 14:20:00,65.6,48.5,29.98,East,101,0.0,7.0,54,0.00,,FEW,0.00,VWS V14.01,2013-07-11 21:20:00,
2013-07-11 14:25:00,66.0,49.4,29.98,South,190,1.0,7.0,55,0.00,,FEW,0.00,VWS V14.01,2013-07-11 21:25:00,
2013-07-11 14:30:00,66.4,50.7,29.97,SE,136,0.0,1.0,57,0.00,,FEW,0.00,VWS V14.01,2013-07-11 21:30:00,
2013-07-11 14:36:00,65.5,46.9,29.97,South,176,0.0,8.0,51,0.00,,FEW,0.00,VWS V14.01,2013-07-11 21:36:00,
2013-07-11 14:41:00,65.6,48.0,29.97,ESE,120,0.0,8.0,53,0.00,,FEW,0.00,VWS V14.01,2013-07-11 21:41:00,
2013-07-11 14:46:00,65.6,48.5,29.97,North,5,0.0,8.0,54,0.00,,FEW,0.00,VWS V14.01,2013-07-11 21:46:00,
2013-07-11 14:52:00,66.1,49.0,29.97,South,190,3.0,8.0,54,0.00,,FEW,0.00,VWS V14.01,2013-07-11 21:52:00,
2013-07-11 14:57:00,66.1,49.0,29.97,North,356,0.0,8.0,54,0.00,,FEW,0.00,VWS V14.01,2013-07-11 21:57:00,
2013-07-11 15:02:00,66.6,47.4,29.97,East,88,0.0,4.0,50,0.00,,FEW,0.00,VWS V14.01,2013-07-11 22:02:00,
2013-07-11 15:07:00,67.4,48.7,29.97,East,89,0.0,5.0,51,0.00,,FEW,0.00,VWS V14.01,2013-07-11 22:07:00,
2013-07-11 15:12:00,67.1,49.4,29.97,SSE,157,1.0,5.0,53,0.00,,FEW,0.00,VWS V14.01,2013-07-11 22:12:00,
2013-07-11 15:18:00,67.3,49.6,29.97,SSW,199,3.0,5.0,53,0.00,,FEW,0.00,VWS V14.01,2013-07-11 22:18:00,
2013-07-11 15:23:00,66.6,48.4,29.97,SSW,205,1.0,5.0,52,0.00,,FEW,0.00,VWS V14.01,2013-07-11 22:23:00,
2013-07-11 15:28:00,66.9,49.2,29.97,South,188,3.0,10.0,53,0.00,,FEW,0.00,VWS V14.01,2013-07-11 22:28:00,
2013-07-11 15:33:00,66.3,48.7,29.96,SSE,152,2.0,11.0,53,0.00,,FEW,0.00,VWS V14.01,2013-07-11 22:33:00,
2013-07-11 15:38:00,66.8,49.6,29.96,South,187,3.0,11.0,54,0.00,,FEW,0.00,VWS V14.01,2013-07-11 22:38:00,
2013-07-11 15:43:00,67.9,49.1,29.96,East,99,3.0,11.0,51,0.00,,FEW,0.00,VWS V14.01,2013-07-11 22:43:00,
2013-07-11 15:48:00,68.6,49.2,29.96,SE,126,1.0,11.0,50,0.00,,FEW,0.00,VWS V14.01,2013-07-11 22:48:00,
2013-07-11 15:54:00,69.1,49.7,29.96,South,181,1.0,11.0,50,0.00,,FEW,0.00,VWS V14.01,2013-07-11 22:54:00,
2013-07-11 15:59:00,68.3,47.3,29.96,ESE,116,2.0,11.0,47,0.00,,FEW,0.00,VWS V14.01,2013-07-11 22:59:00,
2013-07-11 16:04:00,68.4,46.8,29.96,SSE,160,2.0,3.0,46,0.00,,FEW,0.00,VWS V14.01,2013-07-11 23:04:00,
2013-07-11 16:09:00,67.9,47.0,29.96,East,79,2.0,4.0,47,0.00,,FEW,0.00,VWS V14.01,2013-07-11 23:09:00,
2013-07-11 16:14:00,68.6,49.2,29.95,ESE,122,5.0,5.0,50,0.00,,FEW,0.00,VWS V14.01,2013-07-11 23:14:00,
2013-07-11 16:19:00,69.1,46.9,29.95,ESE,115,1.0,5.0,45,0.00,,FEW,0.00,VWS V14.01,2013-07-11 23:19:00,
2013-07-11 16:24:00,69.6,46.8,29.95,NNW,343,1.0,5.0,44,0.00,,FEW,0.00,VWS V14.01,2013-07-11 23:24:00,
2013-07-11 16:30:00,69.8,46.9,29.95,SW,228,2.0,5.0,44,0.00,,FEW,0.00,VWS V14.01,2013-07-11 23:30:00,
2013-07-11 16:35:00,69.4,47.7,29.95,SE,136,2.0,6.0,46,0.00,,FEW,0.00,VWS V14.01,2013-07-11 23:35:00,
2013-07-11 16:40:00,68.6,44.6,29.95,SE,126,0.0,6.0,42,0.00,,FEW,0.00,VWS V14.01,2013-07-11 23:40:00,
2013-07-11 16:45:00,68.6,45.8,29.94,SE,141,0.0,6.0,44,0.00,,FEW,0.00,VWS V14.01,2013-07-11 23:45:00,
2013-07-11 16:50:00,69.1,45.7,29.94,East,95,0.0,6.0,43,0.00,,FEW,0.00,VWS V14.01,2013-07-11 23:50:00,
2013-07-11 16:55:00,69.4,46.6,29.94,ESE,123,1.0,6.0,44,0.00,,FEW,0.00,VWS V14.01,2013-07-11 23:55:00,
2013-07-11 17:01:00,69.6,45.5,29.94,NNE,22,1.0,4.0,42,0.00,,FEW,0.00,VWS V14.01,2013-07-12 00:01:00,
2013-07-11 17:06:00,69.8,46.9,29.94,South,169,1.0,4.0,44,0.00,,FEW,0.00,VWS V14.01,2013-07-12 00:06:00,
2013-07-11 17:11:00,70.1,46.6,29.94,SE,136,0.0,4.0,43,0.00,,FEW,0.00,VWS V14.01,2013-07-12 00:11:00,
2013-07-11 17:16:00,70.3,46.8,29.94,SSW,210,2.0,6.0,43,0.00,,FEW,0.00,VWS V14.01,2013-07-12 00:16:00,
2013-07-11 17:21:00,70.1,47.2,29.94,North,356,1.0,6.0,44,0.00,,FEW,0.00,VWS V14.01,2013-07-12 00:21:00,
2013-07-11 17:27:00,69.6,46.8,29.94,East,91,0.0,8.0,44,0.00,,FEW,0.00,VWS V14.01,2013-07-12 00:27:00,
2013-07-11 17:32:00,69.3,45.9,29.93,ESE,103,0.0,3.0,43,0.00,,FEW,0.00,VWS V14.01,2013-07-12 00:32:00,
2013-07-11 17:37:00,69.1,46.3,29.93,North,5,2.0,4.0,44,0.00,,FEW,0.00,VWS V14.01,2013-07-12 00:37:00,
2013-07-11 17:42:00,68.9,46.1,29.93,NNE,24,4.0,5.0,44,0.00,,FEW,0.00,VWS V14.01,2013-07-12 00:42:00,
2013-07-11 17:47:00,68.9,46.1,29.93,NNE,27,0.0,6.0,44,0.00,,FEW,0.00,VWS V14.01,2013-07-12 00:47:00,
2013-07-11 17:52:00,68.9,45.5,29.93,East,84,2.0,6.0,43,0.00,,FEW,0.00,VWS V14.01,2013-07-12 00:52:00,
2013-07-11 17:57:00,68.8,45.4,29.93,NE,43,0.0,6.0,43,0.00,,FEW,0.00,VWS V14.01,2013-07-12 00:57:00,
2013-07-11 18:02:00,68.6,45.8,29.93,NNE,25,0.0,0.0,44,0.00,,FEW,0.00,VWS V14.01,2013-07-12 01:02:00,
2013-07-11 18:07:00,68.8,47.2,29.93,North,355,0.0,1.0,46,0.00,,FEW,0.00,VWS V14.01,2013-07-12 01:07:00,
2013-07-11 18:13:00,68.8,47.2,29.93,SSE,165,1.0,1.0,46,0.00,,FEW,0.00,VWS V14.01,2013-07-12 01:13:00,
2013-07-11 18:18:00,68.4,46.8,29.92,NNE,16,2.0,4.0,46,0.00,,FEW,0.00,VWS V14.01,2013-07-12 01:18:00,
2013-07-11 18:23:00,68.1,47.1,29.92,NE,39,0.0,4.0,47,0.00,,FEW,0.00,VWS V14.01,2013-07-12 01:23:00,
2013-07-11 18:28:00,67.9,47.0,29.92,NE,50,0.0,4.0,47,0.00,,FEW,0.00,VWS V14.01,2013-07-12 01:28:00,
2013-07-11 18:33:00,67.6,47.8,29.92,SE,127,0.0,1.0,49,0.00,,FEW,0.00,VWS V14.01,2013-07-12 01:33:00,
2013-07-11 18:39:00,67.3,47.0,29.92,North,5,2.0,3.0,48,0.00,,FEW,0.00,VWS V14.01,2013-07-12 01:39:00,
2013-07-11 18:44:00,66.9,47.1,29.91,East,99,0.0,4.0,49,0.00,,FEW,0.00,VWS V14.01,2013-07-12 01:44:00,
2013-07-11 18:49:00,66.9,47.7,29.91,NE,53,0.0,4.0,50,0.00,,FEW,0.00,VWS V14.01,2013-07-12 01:49:00,
2013-07-11 18:54:00,66.8,47.0,29.91,North,10,2.0,4.0,49,0.00,,FEW,0.00,VWS V14.01,2013-07-12 01:54:00,
2013-07-11 19:00:00,66.6,47.9,29.91,NNE,21,0.0,4.0,51,0.00,,FEW,0.00,VWS V14.01,2013-07-12 02:00:00,
2013-07-11 19:05:00,66.6,49.0,29.91,NNE,21,0.0,1.0,53,0.00,,FEW,0.00,VWS V14.01,2013-07-12 02:05:00,
2013-07-11 19:10:00,66.4,49.3,29.91,North,5,0.0,1.0,54,0.00,,FEW,0.00,VWS V14.01,2013-07-12 02:10:00,
2013-07-11 19:15:00,66.1,48.0,29.91,NE,43,0.0,3.0,52,0.00,,FEW,0.00,VWS V14.01,2013-07-12 02:15:00,
2013-07-11 19:20:00,66.0,46.8,29.91,ENE,68,0.0,4.0,50,0.00,,FEW,0.00,VWS V14.01,2013-07-12 02:20:00,
2013-07-11 19:27:00,66.0,49.9,29.91,ENE,68,0.0,4.0,56,0.00,,FEW,0.00,VWS V14.01,2013-07-12 02:27:00,
2013-07-11 19:32:00,65.6,50.0,29.91,ENE,68,0.0,0.0,57,0.00,,FEW,0.00,VWS V14.01,2013-07-12 02:32:00,
2013-07-11 19:37:00,65.3,49.2,29.91,ENE,68,0.0,0.0,56,0.00,,FEW,0.00,VWS V14.01,2013-07-12 02:37:00,
2013-07-11 19:43:00,65.0,48.9,29.91,ENE,68,0.0,1.0,56,0.00,,FEW,0.00,VWS V14.01,2013-07-12 02:43:00,
2013-07-11 19:48:00,64.7,49.6,29.91,ENE,68,0.0,1.0,58,0.00,,FEW,0.00,VWS V14.01,2013-07-12 02:48:00,
2013-07-11 19:53:00,64.5,49.9,29.91,ENE,68,0.0,1.0,59,0.00,,FEW,0.00,VWS V14.01,2013-07-12 02:53:00,
2013-07-11 19:58:00,64.2,49.6,29.91,ENE,68,0.0,1.0,59,0.00,,FEW,0.00,VWS V14.01,2013-07-12 02:58:00,
2013-07-11 20:04:00,64.0,49.8,29.91,ENE,68,0.0,0.0,60,0.00,,FEW,0.00,VWS V14.01,2013-07-12 03:04:00,
2013-07-11 20:09:00,63.7,50.0,29.91,ENE,68,0.0,0.0,61,0.00,,FEW,0.00,VWS V14.01,2013-07-12 03:09:00,
2013-07-11 20:14:00,63.4,50.2,29.91,ENE,68,0.0,0.0,62,0.00,,FEW,0.00,VWS V14.01,2013-07-12 03:14:00,
2013-07-11 20:19:00,62.9,49.7,29.91,ENE,68,0.0,0.0,62,0.00,,FEW,0.00,VWS V14.01,2013-07-12 03:19:00,
2013-07-11 20:25:00,62.6,49.8,29.91,ENE,68,0.0,0.0,63,0.00,,FEW,0.00,VWS V14.01,2013-07-12 03:25:00,
2013-07-11 20:30:00,62.4,50.5,29.91,ENE,68,0.0,0.0,65,0.00,,FEW,0.00,VWS V14.01,2013-07-12 03:30:00,
2013-07-11 20:35:00,62.1,50.2,29.91,ENE,68,0.0,0.0,65,0.00,,FEW,0.00,VWS V14.01,2013-07-12 03:35:00,
2013-07-11 20:40:00,62.0,50.5,29.91,ENE,68,0.0,0.0,66,0.00,,FEW,0.00,VWS V14.01,2013-07-12 03:40:00,
2013-07-11 20:45:00,61.8,50.7,29.91,ENE,68,0.0,0.0,67,0.00,,FEW,0.00,VWS V14.01,2013-07-12 03:45:00,
2013-07-11 20:50:00,61.5,51.2,29.91,ENE,68,0.0,0.0,69,0.00,,FEW,0.00,VWS V14.01,2013-07-12 03:50:00,
2013-07-11 20:55:00,61.3,51.1,29.91,ENE,68,0.0,0.0,69,0.00,,FEW,0.00,VWS V14.01,2013-07-12 03:55:00,
2013-07-11 21:00:00,61.0,51.5,29.91,ENE,68,0.0,0.0,71,0.00,,FEW,0.00,VWS V14.01,2013-07-12 04:00:00,
2013-07-11 21:01:00,61.0,51.5,29.91,ENE,68,0.0,0.0,71,0.00,,FEW,0.00,VWS V14.01,2013-07-12 04:01:00,
2013-07-11 21:07:00,60.7,51.2,29.91,ENE,68,0.0,0.0,71,0.00,,FEW,0.00,VWS V14.01,2013-07-12 04:07:00,
2013-07-11 21:12:00,60.4,51.0,29.91,ENE,68,0.0,0.0,71,0.00,,FEW,0.00,VWS V14.01,2013-07-12 04:12:00,
2013-07-11 21:17:00,60.1,50.7,29.91,ENE,68,0.0,0.0,71,0.00,,FEW,0.00,VWS V14.01,2013-07-12 04:17:00,
2013-07-11 21:22:00,59.8,50.4,29.91,ENE,68,0.0,0.0,71,0.00,,FEW,0.00,VWS V14.01,2013-07-12 04:22:00,
2013-07-11 21:27:00,59.5,50.5,29.91,ENE,68,0.0,0.0,72,0.00,,FEW,0.00,VWS V14.01,2013-07-12 04:27:00,
2013-07-11 21:32:00,59.3,50.3,29.91,ENE,68,0.0,0.0,72,0.00,,FEW,0.00,VWS V14.01,2013-07-12 04:32:00,
2013-07-11 21:37:00,59.0,50.4,29.91,ENE,68,0.0,0.0,73,0.00,,FEW,0.00,VWS V14.01,2013-07-12 04:37:00,
2013-07-11 21:42:00,58.7,50.1,29.91,ENE,68,0.0,0.0,73,0.00,,FEW,0.00,VWS V14.01,2013-07-12 04:42:00,
2013-07-11 21:47:00,58.6,50.0,29.92,ENE,68,0.0,0.0,73,0.00,,FEW,0.00,VWS V14.01,2013-07-12 04:47:00,
2013-07-11 21:52:00,58.3,50.1,29.92,ENE,68,0.0,1.0,74,0.00,,FEW,0.00,VWS V14.01,2013-07-12 04:52:00,
2013-07-11 21:57:00,58.1,50.2,29.92,ENE,68,0.0,1.0,75,0.00,,FEW,0.00,VWS V14.01,2013-07-12 04:57:00,
2013-07-11 22:02:00,58.0,50.5,29.92,ENE,68,0.0,0.0,76,0.00,,FEW,0.00,VWS V14.01,2013-07-12 05:02:00,
2013-07-11 22:07:00,57.6,50.5,29.92,ENE,68,0.0,0.0,77,0.00,,FEW,0.00,VWS V14.01,2013-07-12 05:07:00,
2013-07-11 22:12:00,57.5,50.4,29.92,ENE,68,0.0,0.0,77,0.00,,FEW,0.00,VWS V14.01,2013-07-12 05:12:00,
2013-07-11 22:17:00,57.3,50.2,29.92,ENE,68,0.0,0.0,77,0.00,,FEW,0.00,VWS V14.01,2013-07-12 05:17:00,
2013-07-11 22:22:00,57.2,50.4,29.92,ENE,68,0.0,0.0,78,0.00,,FEW,0.00,VWS V14.01,2013-07-12 05:22:00,
2013-07-11 22:27:00,56.9,50.1,29.92,ENE,68,0.0,0.0,78,0.00,,FEW,0.00,VWS V14.01,2013-07-12 05:27:00,
2013-07-11 22:32:00,56.7,50.3,29.92,ENE,68,0.0,0.0,79,0.00,,FEW,0.00,VWS V14.01,2013-07-12 05:32:00,
2013-07-11 22:37:00,56.6,50.2,29.92,ENE,68,0.0,0.0,79,0.00,,FEW,0.00,VWS V14.01,2013-07-12 05:37:00,
2013-07-11 22:42:00,56.5,50.1,29.92,ENE,68,0.0,0.0,79,0.00,,FEW,0.00,VWS V14.01,2013-07-12 05:42:00,
2013-07-11 22:47:00,56.3,49.9,29.92,ENE,68,0.0,0.0,79,0.00,,FEW,0.00,VWS V14.01,2013-07-12 05:47:00,
2013-07-11 22:52:00,56.2,49.8,29.92,ENE,68,0.0,0.0,79,0.00,,FEW,0.00,VWS V14.01,2013-07-12 05:52:00,
2013-07-11 22:57:00,56.2,50.1,29.92,ENE,68,0.0,0.0,80,0.00,,FEW,0.00,VWS V14.01,2013-07-12 05:57:00,
2013-07-11 23:02:00,56.0,50.3,29.92,ENE,68,0.0,0.0,81,0.00,,FEW,0.00,VWS V14.01,2013-07-12 06:02:00,
2013-07-11 23:07:00,56.0,50.3,29.92,ENE,68,0.0,0.0,81,0.00,,FEW,0.00,VWS V14.01,2013-07-12 06:07:00,
2013-07-11 23:12:00,55.9,50.2,29.92,ENE,68,0.0,0.0,81,0.00,,FEW,0.00,VWS V14.01,2013-07-12 06:12:00,
2013-07-11 23:17:00,55.9,50.2,29.92,ENE,68,0.0,0.0,81,0.00,,FEW,0.00,VWS V14.01,2013-07-12 06:17:00,
2013-07-11 23:22:00,55.9,50.2,29.92,ENE,68,0.0,0.0,81,0.00,,FEW,0.00,VWS V14.01,2013-07-12 06:22:00,
2013-07-11 23:28:00,55.7,50.3,29.92,ENE,68,0.0,0.0,82,0.00,,FEW,0.00,VWS V14.01,2013-07-12 06:28:00,
2013-07-11 23:33:00,55.6,50.2,29.92,ENE,68,0.0,0.0,82,0.00,,FEW,0.00,VWS V14.01,2013-07-12 06:33:00,
2013-07-11 23:38:00,55.4,50.0,29.92,ENE,68,0.0,0.0,82,0.00,,FEW,0.00,VWS V14.01,2013-07-12 06:38:00,
2013-07-11 23:43:00,55.4,50.0,29.92,ENE,68,0.0,0.0,82,0.00,,FEW,0.00,VWS V14.01,2013-07-12 06:43:00,
2013-07-11 23:48:00,55.3,50.2,29.93,ENE,68,0.0,0.0,83,0.00,,FEW,0.00,VWS V14.01,2013-07-12 06:48:00,
2013-07-11 23:53:00,55.0,49.6,29.93,ENE,68,0.0,0.0,82,0.00,,FEW,0.00,VWS V14.01,2013-07-12 06:53:00,
2013-07-11 23:58:00,54.8,49.7,29.93,ENE,68,0.0,0.0,83,0.00,,FEW,0.00,VWS V14.01,2013-07-12 06:58:00,